Notices

What's New in latest Release from April 7th, 2021:

- Updated Glossary, including Speed of Maximum Gust, and Total Hourly Precipitation

- Updated national and regional climate services offices contacts and prices information

- Addition of station inventory lists for 1981-2010, 1971-2000, and 1961-1990 Normals.

If you haven't already, please take our survey and provide feedback about our website: https://eccc.sondage-survey.ca/f/LanguageSelection.aspx?s=442ca660-fcf1-47c0-95a9-59707d6fd709

Hourly Data Report for February 14, 2021

OTTAWA INTL A
ONTARIO
Current Station Operator: NAVCAN

45°19'00.000" N
75°40'00.000" W
114.90 m
6106001
71628
YOW

Download Data

Hourly Data (February 2021)
Hourly Data Report for February 14, 2021
TIME
LST
Temp Definition
°C
Dew Point Definition
°C
Rel Hum Definition
%
Precip. Amount Definition
mm

Wind Dir Definition
10's deg

Wind Spd Definition
km/h
Visibility Definition
km
Stn Press Definition
kPa
Hmdx Definition


Wind Chill Definition


Weather Definition


00:00 -14.1 -17.7 74   5 15 6.4 100.96   -22 Snow
01:00 -14.0 -17.0 78   4 16 3.2 100.94   -22 Snow
02:00 -13.8 -16.2 82   5 11 6.4 100.92   -20 Snow
03:00 -13.5 -15.7 84   5 10 3.2 100.88   -19 Snow
04:00 -12.8 -15.1 83   7 13 12.9 100.81   -20 Snow
05:00 -12.8 -15.0 84   10 9 8.1 100.83   -18 Snow
06:00 -12.6 -15.0 83   9 5 12.9 100.90   -16 Snow
07:00 -12.6 -15.1 82   36 2 12.9 100.96   -14 Snow
08:00 -12.5 -14.8 83   1 5 16.1 101.00   -16 Snow
09:00 -13.2 -15.3 85   36 1 24.1 101.02   -14 LegendNANA
10:00 -11.9 -15.6 74   23 9 24.1 101.09   -17 Mainly Clear
11:00 -10.8 -14.4 75   31 16 24.1 101.08   -18 LegendNANA
12:00 -9.4 -13.7 71   28 17 24.1 101.14   -16 LegendNANA
13:00 -8.6 -13.2 69   29 10 24.1 101.13   -14 Mostly Cloudy
14:00 -7.8 -12.9 67   31 9 24.1 101.13   -12 LegendNANA
15:00 -7.5 -13.1 65   29 11 24.1 101.21   -13 LegendNANA
16:00 -7.9 -13.7 63   25 6 24.1 101.23   -11 Clear
17:00 -7.6 -13.4 63   24 4 24.1 101.19   -10 LegendNANA
18:00 -9.3 -13.7 70   36 3 24.1 101.29   -11 LegendNANA
19:00 -9.3 -13.4 73   19 4 24.1 101.33   -12 Mostly Cloudy
20:00 -9.4 -13.7 71   36 1 24.1 101.30   -10 LegendNANA
21:00 -10.8 -14.6 74   16 7 24.1 101.31   -15 LegendNANA
22:00 -12.7 -16.6 73   18 8 24.1 101.34   -18 Mainly Clear
23:00 -11.5 -14.6 78   15 4 24.1 101.30   -14 LegendNANA

Notes on Data Quality.

Legend

  • E = Estimated
  • M = Missing
  • NA = Not Available*
  • [empty] = Indicates an unobserved value
Date modified: